When you browse on this site, cookies collect data to enhance your experience and personalize the content and advertising you see.
Visit our Privacy Policy to learn more. By continuing to use the site, you agree to this use of cookies and data.
  • In Schweiz
  • Länderverzeichnis
  • Für 7 Tage
  • Wassertemperatur
  • Wetterkarte
  • Widgets
  • user-avatar
    Anmelden

    Stündliche Wetter Martos

    Heute, 7 Dezember, Samstag

    Zeit Temperatur Niederschläge Wind Luftdruck Luftfeuchtigkeit
    00:00 +7°C° 0 mm 2 m/S 704 mmHg 79%
    01:00 +7°C° 0 mm 1 m/S 704 mmHg 80%
    02:00 +7°C° 0 mm 1 m/S 703 mmHg 81%
    03:00 +7°C° 0 mm 1 m/S 703 mmHg 82%
    04:00 +7°C° 0 mm 1 m/S 703 mmHg 82%
    05:00 +6°C° 0 mm 1 m/S 703 mmHg 82%
    06:00 +6°C° 0 mm 1 m/S 704 mmHg 82%
    07:00 +7°C° 0 mm 1 m/S 704 mmHg 78%
    08:00 +8°C° 0 mm 1 m/S 704 mmHg 74%
    09:00 +10°C° 0 mm 1 m/S 705 mmHg 69%
    10:00 +11°C° 0 mm 1 m/S 705 mmHg 64%
    11:00 +12°C° 0 mm 1 m/S 705 mmHg 58%
    12:00 +14°C° 0 mm 1 m/S 705 mmHg 52%
    13:00 +14°C° 0 mm 1 m/S 705 mmHg 51%
    14:00 +14°C° 0 mm 1 m/S 705 mmHg 51%
    15:00 +15°C° 0 mm 1 m/S 705 mmHg 50%
    16:00 +13°C° 0 mm 1 m/S 705 mmHg 58%
    17:00 +10°C° 0 mm 0 m/S 705 mmHg 66%
    18:00 +8°C° 0 mm 0 m/S 705 mmHg 74%
    19:00 +8°C° 0 mm 0 m/S 705 mmHg 75%
    20:00 +7°C° 0 mm 0 m/S 705 mmHg 76%
    21:00 +7°C° 0 mm 0 m/S 706 mmHg 78%
    22:00 +7°C° 0 mm 0 m/S 706 mmHg 78%
    23:00 +6°C° 0 mm 0 m/S 706 mmHg 79%

    Morgen, 8 Dezember, Sonntag

    Zeit Temperatur Niederschläge Wind Luftdruck Luftfeuchtigkeit
    00:00 +6°C° 0 mm 0 m/S 706 mmHg 80%
    01:00 +6°C° 0 mm 0 m/S 706 mmHg 80%
    02:00 +5°C° 0 mm 0 m/S 706 mmHg 81%
    03:00 +5°C° 0 mm 0 m/S 706 mmHg 82%
    04:00 +5°C° 0 mm 0 m/S 706 mmHg 82%
    05:00 +5°C° 0 mm 0 m/S 706 mmHg 83%
    06:00 +4°C° 0 mm 0 m/S 706 mmHg 83%
    07:00 +6°C° 0 mm 0 m/S 706 mmHg 78%
    08:00 +7°C° 0 mm 0 m/S 707 mmHg 72%
    09:00 +9°C° 0 mm 0 m/S 707 mmHg 67%
    10:00 +10°C° 0 mm 0 m/S 707 mmHg 63%
    11:00 +11°C° 0 mm 0 m/S 707 mmHg 59%
    12:00 +13°C° 0 mm 1 m/S 707 mmHg 55%
    13:00 +14°C° 0 mm 1 m/S 707 mmHg 54%
    14:00 +14°C° 0 mm 1 m/S 707 mmHg 53%
    15:00 +14°C° 0 mm 2 m/S 707 mmHg 52%
    16:00 +13°C° 0 mm 1 m/S 707 mmHg 59%
    17:00 +11°C° 0 mm 1 m/S 707 mmHg 67%
    18:00 +9°C° 0 mm 1 m/S 707 mmHg 74%
    19:00 +9°C° 0 mm 1 m/S 707 mmHg 73%
    20:00 +9°C° 0 mm 1 m/S 707 mmHg 72%
    21:00 +8°C° 0 mm 0 m/S 707 mmHg 71%
    22:00 +8°C° 0 mm 0 m/S 707 mmHg 73%
    23:00 +8°C° 0 mm 0 m/S 707 mmHg 74%

    übermorgen, 9 Dezember, Montag

    Zeit Temperatur Niederschläge Wind Luftdruck Luftfeuchtigkeit
    00:00 +8°C° 0 mm 0 m/S 707 mmHg 76%
    01:00 +8°C° 0 mm 0 m/S 707 mmHg 76%
    02:00 +8°C° 0 mm 0 m/S 707 mmHg 77%
    03:00 +8°C° 0 mm 0 m/S 707 mmHg 77%
    04:00 +7°C° 0 mm 0 m/S 707 mmHg 79%
    05:00 +7°C° 0 mm 0 m/S 707 mmHg 82%
    06:00 +7°C° 0 mm 0 m/S 707 mmHg 84%
    07:00 +9°C° 0 mm 1 m/S 708 mmHg 81%
    08:00 +9°C° 0 mm 1 m/S 708 mmHg 79%
    09:00 +10°C° 0 mm 1 m/S 709 mmHg 76%
    10:00 +12°C° 0 mm 1 m/S 709 mmHg 72%
    11:00 +13°C° 0 mm 2 m/S 709 mmHg 67%
    12:00 +14°C° 0 mm 2 m/S 709 mmHg 62%
    13:00 +15°C° 0 mm 2 m/S 709 mmHg 59%
    14:00 +15°C° 0 mm 2 m/S 709 mmHg 57%
    15:00 +16°C° 0 mm 2 m/S 709 mmHg 54%
    16:00 +14°C° 0 mm 2 m/S 709 mmHg 61%
    17:00 +12°C° 0 mm 1 m/S 708 mmHg 68%
    18:00 +10°C° 0 mm 1 m/S 708 mmHg 75%
    19:00 +10°C° 0 mm 1 m/S 708 mmHg 73%
    20:00 +9°C° 0 mm 1 m/S 709 mmHg 72%
    21:00 +9°C° 0 mm 1 m/S 709 mmHg 71%
    22:00 +9°C° 0 mm 1 m/S 709 mmHg 69%
    23:00 +8°C° 0 mm 1 m/S 709 mmHg 66%

    10 Dezember, Dienstag

    Zeit Temperatur Niederschläge Wind Luftdruck Luftfeuchtigkeit
    00:00 +8°C° 0 mm 1 m/S 708 mmHg 63%
    01:00 +7°C° 0 mm 1 m/S 708 mmHg 62%
    02:00 +7°C° 0 mm 1 m/S 708 mmHg 61%
    03:00 +7°C° 0 mm 1 m/S 708 mmHg 60%
    04:00 +7°C° 0 mm 1 m/S 707 mmHg 58%
    05:00 +7°C° 0 mm 1 m/S 707 mmHg 55%
    06:00 +6°C° 0 mm 1 m/S 707 mmHg 52%
    07:00 +8°C° 0 mm 1 m/S 707 mmHg 49%
    08:00 +9°C° 0 mm 1 m/S 708 mmHg 46%
    09:00 +11°C° 0 mm 1 m/S 708 mmHg 43%
    10:00 +12°C° 0 mm 1 m/S 708 mmHg 38%
    11:00 +14°C° 0 mm 1 m/S 708 mmHg 33%
    12:00 +16°C° 0 mm 1 m/S 708 mmHg 28%
    13:00 +16°C° 0 mm 1 m/S 708 mmHg 29%
    14:00 +16°C° 0 mm 1 m/S 707 mmHg 30%
    15:00 +16°C° 0 mm 1 m/S 707 mmHg 31%
    16:00 +13°C° 0 mm 0 m/S 707 mmHg 35%
    17:00 +11°C° 0 mm 0 m/S 706 mmHg 38%
    18:00 +9°C° 0 mm 0 m/S 706 mmHg 42%
    19:00 +8°C° 0 mm 0 m/S 706 mmHg 41%
    20:00 +8°C° 0 mm 0 m/S 706 mmHg 40%
    21:00 +8°C° 0 mm 0 m/S 706 mmHg 39%
    22:00 +7°C° 0 mm 0 m/S 706 mmHg 39%
    23:00 +7°C° 0 mm 0 m/S 706 mmHg 40%

    11 Dezember, Mittwoch

    Zeit Temperatur Niederschläge Wind Luftdruck Luftfeuchtigkeit
    00:00 +7°C° 0 mm 0 m/S 706 mmHg 40%
    01:00 +6°C° 0 mm 0 m/S 705 mmHg 42%
    02:00 +6°C° 0 mm 0 m/S 705 mmHg 43%
    03:00 +6°C° 0 mm 0 m/S 705 mmHg 45%
    04:00 +5°C° 0 mm 0 m/S 705 mmHg 46%
    05:00 +5°C° 0 mm 0 m/S 705 mmHg 48%
    06:00 +5°C° 0 mm 0 m/S 704 mmHg 49%
    07:00 +6°C° 0 mm 0 m/S 705 mmHg 49%
    08:00 +9°C° 0 mm 1 m/S 706 mmHg 49%
    09:00 +10°C° 0 mm 1 m/S 706 mmHg 48%
    10:00 +11°C° 0 mm 1 m/S 706 mmHg 45%
    11:00 +12°C° 0 mm 1 m/S 706 mmHg 41%
    12:00 +14°C° 0 mm 2 m/S 705 mmHg 38%
    13:00 +14°C° 0 mm 2 m/S 705 mmHg 42%
    14:00 +14°C° 0 mm 2 m/S 705 mmHg 45%
    15:00 +14°C° 0 mm 2 m/S 705 mmHg 49%
    16:00 +13°C° 0 mm 2 m/S 705 mmHg 55%
    17:00 +12°C° 0 mm 1 m/S 705 mmHg 60%
    18:00 +11°C° 0 mm 1 m/S 705 mmHg 65%
    19:00 +10°C° 0 mm 1 m/S 705 mmHg 70%
    20:00 +9°C° 0 mm 1 m/S 706 mmHg 75%
    21:00 +8°C° 0 mm 1 m/S 706 mmHg 80%
    22:00 +8°C° 0 mm 1 m/S 706 mmHg 81%
    23:00 +7°C° 0 mm 1 m/S 706 mmHg 82%

    12 Dezember, Donnerstag

    Zeit Temperatur Niederschläge Wind Luftdruck Luftfeuchtigkeit
    00:00 +6°C° 0 mm 2 m/S 707 mmHg 83%
    01:00 +6°C° 0 mm 1 m/S 706 mmHg 83%
    02:00 +5°C° 0 mm 1 m/S 706 mmHg 82%
    03:00 +5°C° 0 mm 1 m/S 706 mmHg 82%
    04:00 +5°C° 0 mm 1 m/S 706 mmHg 82%
    05:00 +4°C° 0 mm 1 m/S 706 mmHg 83%
    06:00 +4°C° 0 mm 1 m/S 706 mmHg 83%
    07:00 +5°C° 0 mm 1 m/S 706 mmHg 79%
    08:00 +6°C° 0 mm 1 m/S 707 mmHg 74%
    09:00 +8°C° 0 mm 1 m/S 707 mmHg 70%
    10:00 +9°C° 0 mm 1 m/S 707 mmHg 66%
    11:00 +10°C° 0 mm 1 m/S 707 mmHg 62%
    12:00 +10°C° 0 mm 2 m/S 707 mmHg 57%
    13:00 +10°C° 0 mm 2 m/S 707 mmHg 56%
    14:00 +11°C° 0 mm 3 m/S 706 mmHg 54%
    15:00 +11°C° 0 mm 4 m/S 706 mmHg 53%
    16:00 +9°C° 0 mm 3 m/S 706 mmHg 58%
    17:00 +7°C° 0 mm 2 m/S 706 mmHg 64%
    18:00 +6°C° 0 mm 2 m/S 706 mmHg 70%
    19:00 +6°C° 0 mm 2 m/S 706 mmHg 71%
    20:00 +5°C° 0 mm 2 m/S 706 mmHg 72%
    21:00 +6°C° 0 mm 1 m/S 707 mmHg 73%
    22:00 +6°C° 0 mm 1 m/S 707 mmHg 74%
    23:00 +5°C° 0 mm 2 m/S 707 mmHg 75%
    Mehr zeigen